{"data":{"norad_id":52788,"intl_designator":"2022-058D","name":"GEESAT-1 04","alt_names":[],"object_type":"PAYLOAD","status":"ACTIVE","operator":null,"country":"PRC","launch_date":"2022-06-02","launch_site_code":"XICLF","launch_vehicle":null,"mission":null,"orbit_class":"UNKNOWN","rcs_meters":null,"size_class":null,"mass_kg":null,"dimensions":null,"purposes":[],"wikipedia_slug":null,"has_3d_model":false,"image_url":null,"decayed_at":null,"tle_current":{"epoch":"2026-05-25T04:05:45.055104Z","epoch_age_seconds":70888,"freshness":"FRESH","line1":"1 52788U 22058D   26145.17066036  .00001568  00000+0  22704-3 0  9991","line2":"2 52788  50.0053 309.3159 0009710  62.2424 297.9497 14.81308409216512","mean_motion":14.81308409,"eccentricity":0.000971,"inclination_deg":50.0053,"raan_deg":309.3159,"arg_perigee_deg":62.2424,"mean_anomaly_deg":297.9497,"bstar":0.00022704,"rev_number":21651,"period_min":97.211356612234,"perigee_km":618.39692618483,"apogee_km":631.99740113065,"semimajor_km":7003.3341636577,"source":"CELESTRAK","updated_at":"2026-05-25T13:37:57.889120Z"}}}